User: anonymous   Login
Location: Caltech
(34.1382°N, 118.1253°W)
Time: 05:20:13
(UTC-07:00)
Language:

Courier 1B - Orbit

View from above orbital plane
View from above orbital plane
View from above satellite
View from above satellite

Ground track
Ground track

The orbit data is extracted from the following two-line orbital elements,

1    58U 60013A   17266.81068614 +.00000099 +00000-0 +24080-4 0  9995
2    58 028.3266 115.8855 0164934 089.7612 272.1831 13.46309912804076
Epoch (UTC): 23 September 2017 19:27:23
Eccentricity: 0.0164934
inclination: 28.3266°
perigee height: 963 km
apogee height: 1209 km
right ascension of ascending node: 115.8855°
argument of perigee: 89.7612°
revolutions per day: 13.46309912
mean anomaly at epoch: 272.1831°
orbit number at epoch: 80407

The dashed part of the orbit path shows where the satellite is in the earth's shadow,  

DLR